Location: *
(35.2348°S, 91.3916°E)
Time: 00:03:45
(UTC+00:00)

NOSS 3-1 (C) - Pass Details

Date: 23 October 2019
Orbit: 770 x 1439 km, 63.4° (Epoch: 31 October)

Event Time Altitude Azimuth Distance (km) Brightness Sun altitude
Rises 13:10:35 0° 207° (SSW) 3,772 7.4 -11.4°
Reaches altitude 10° 13:13:30 10° 200° (SSW) 2,714 6.5 -12.0°
Maximum altitude 13:19:26 45° 128° (SE) 1,167 3.7 -13.1°
Enters shadow 13:23:01 20° 64° (ENE) 1,831 4.3 -13.7°
